CZ-6A DEB, 61087

Orbit data source: Space-Track

CZ-6A DEB, 61087 is space debris in LEO originally from a launch on Tue, 06 Aug 2024 UTC launched from the Taiyaun Space Center, China (TSC). Debris objects in space refer to the collection of defunct objects orbiting the Earth. Examples of debris include non-operational satellites, rocket bodies, and fragments generated from explosions, collisions, or faulty payload assembly.

Loading next visibility...
Identifier
61087, 2024-140ND
Orbit
LEO
Country
Flag of CNCN / PRC
Related business
Manufacturer
SAST
Mission
Spacecraft
Bus & Motor
Unknown
Mass
Unknown
Launch date (UTC)
2024-08-06 (1 year ago)
Launch vehicle
Unknown
Launch site
Taiyaun Space Center, China (TSC)
Object type
Payload
Rocket body
Debris
Shape & HBR
Unknown shape, 0.1 m
Radar Cross Section
Small (<0.1 m²)

Expand to show TLE details & history
Last TLE update: 10 hours ago

TLE from 10 hours ago
0 CZ-6A DEB
1 61087U 24140ND  25343.09698920  .00002229  00000-0  51509-3 0  9991
2 61087  88.9110 287.8889 0094447 195.6207 164.2083 14.52158868 68139
Epoch: 2025-12-09T02:19Z
TLE epoch observation values (Epoch: 2025-12-09T02:19:39.866Z)
Latitude
-0.00009°
Longitude
174.88622°
Altitude
786.262 km
Speed
7.427 km/s
True Right ascension
19h 11m 33s
True Declination
0° 00' 00"
Sunlit
Object was in daylight at epoch
Visualization orbit readout
Latitude
Unknown
Longitude
Unknown
Altitude
Unknown
Speed
Unknown
Apparent Right ascension
Unknown
Apparent Declination
Unknown
Sunlit
N/A
Visualization observer readout
Local Sidereal Time
10:16:22
Azimuth
Unknown
Elevation
Unknown
Doppler factor
Unknown
Orbital elements
Apogee altitude
782.509 km
Perigee altitude
648.514 km
Semi-major axis
7,093.649 km
Eccentricity
0.00944
Inclination
88.911°
RAAN
287.8889°
Arg. of periapsis
195.6207°
True anomaly
164.49952°
Mean anomaly
164.2083°
Eccentric anomaly
164.35424°
Mean motion
3.63278 °/min
Orbital period
99.1 mins
BSTAR
0.00051509
Loading maneuver chart data...
Computing Atmospheric mass density...
Loading historical data...
Loading historical data...
Loading historical data...
Loading historical data...
Loading historical data...
Loading historical data...
Loading historical data...

Documentation

Showing up to 5 results
|